Snowfall_Accumulation
0.3 0.2 0.2 0.2 0.3 0.3 0.2 0.2 0.1 0.1 0.1 0.2 0.3 0.4 0.6 0.8 0.8 1.0 1.2 1.4 2.1 2.1 2.1 2.4 3.2 4.0 3.2 3.6 3.3 3.2 3.4 3.6 2.7 2.7 3.4 3.8 4.4 4.7 5.3 5.5 5.6 6.2
0.3 0.3 0.3 0.4 0.4 0.4 0.3 0.2 0.3 0.3 0.4 0.4 0.3 0.3 0.4 0.4 1.0 1.0 1.2 1.4 1.6 2.0 2.1 2.5 2.1 2.5 2.5 3.1 2.9 3.4 3.0 2.7 2.9 2.1 2.5 2.7 3.1 3.1 3.6 3.8 4.2 4.3
0.5 0.5 0.6 0.6 0.8 0.8 0.9 0.9 0.9 0.9 0.8 0.7 0.5 0.5 0.4 0.3 0.3 0.4 0.6 1.0 1.5 2.1 2.2 3.1 3.5 3.9 4.1 3.5 2.5 2.5 2.8 2.9 3.2 2.8 2.9 2.9 2.5 2.8 2.9 2.8 3.2 3.5
0.6 0.7 0.8 1.0 1.1 1.2 1.1 1.2 1.1 1.2 0.9 0.9 0.7 0.6 0.5 0.6 0.5 0.7 0.8 0.8 1.0 1.1 1.4 1.7 2.1 2.4 3.0 3.2 4.4 4.4 4.3 3.8 3.5 3.3 3.4 3.6 3.5 3.2 3.0 2.8 3.1 3.4
0.7 0.8 0.8 0.8 0.8 0.9 1.0 1.1 1.2 1.1 1.3 1.2 1.2 1.0 1.1 1.0 1.0 1.2 1.2 1.2 1.2 1.3 2.1 1.7 1.7 1.9 2.0 2.1 2.5 3.3 3.4 3.8 3.8 3.7 3.6 3.7 3.4 3.5 3.5 3.6 3.9 4.0
0.8 0.8 0.8 0.9 0.8 1.0 1.2 1.1 1.1 1.3 1.6 1.3 1.2 0.9 1.2 1.1 1.3 1.3 1.5 1.7 1.6 1.6 1.8 3.4 2.4 2.2 2.7 2.2 2.3 2.4 2.6 2.6 2.8 3.1 3.8 4.4 4.5 4.2 4.3 4.2 4.3 4.3
1.5 1.4 1.5 1.6 1.7 1.8 2.0 1.9 2.0 2.2 1.8 1.7 2.0 1.9 1.2 1.1 1.1 1.3 1.5 1.7 1.9 2.1 2.3 3.2 2.9 3.3 2.8 3.0 3.5 3.5 3.5 3.6 3.7 3.9 4.2 4.0 4.1 4.3 4.4 5.3 5.7 5.7
2.4 2.2 2.2 2.1 2.2 2.1 2.1 2.1 2.7 2.7 2.4 2.1 2.5 1.5 1.7 1.5 1.5 1.5 1.5 1.6 1.9 1.9 2.0 2.2 3.2 3.3 3.3 3.6 3.9 3.9 3.9 3.9 4.6 5.2 5.0 5.0 4.6 5.1 4.5 4.7 5.3 6.0
2.5 2.5 2.5 2.6 2.7 2.8 3.2 3.3 2.9 2.8 2.6 2.4 2.1 1.8 1.7 1.8 1.8 1.8 1.8 1.8 1.8 1.7 1.7 2.0 2.2 2.5 2.3 3.1 3.7 3.9 4.0 3.9 4.0 4.4 4.8 5.0 4.9 4.7 4.5 4.5 5.3 5.8
2.8 2.7 2.7 2.8 3.2 2.9 2.8 2.6 3.3 2.6 2.5 2.5 2.6 2.4 2.5 2.1 1.9 1.8 1.9 1.9 2.1 2.2 2.5 2.0 2.1 1.9 2.1 2.6 2.9 2.9 3.6 4.1 3.7 3.6 3.9 4.4 4.8 4.7 4.7 5.2 5.8 6.2
3.2 3.1 3.2 3.1 3.1 3.0 2.9 2.8 3.2 2.7 2.5 3.3 2.8 3.1 3.7 2.7 2.5 2.1 2.3 2.4 2.3 2.1 1.9 1.8 1.9 1.8 2.1 2.1 2.1 2.3 2.7 2.9 3.3 3.7 3.8 3.9 4.1 4.4 5.0 5.4 5.6 5.9
3.2 3.1 3.2 3.2 3.1 3.4 3.0 2.9 3.0 3.0 3.1 3.5 4.0 3.0 3.4 3.0 3.2 2.9 2.8 2.6 2.4 2.3 2.2 2.5 2.2 2.2 2.3 2.8 2.2 2.0 2.1 2.3 2.6 2.7 2.7 3.0 3.4 3.8 4.0 4.5 5.3 5.3
3.1 3.2 3.1 3.1 3.2 3.2 3.3 3.4 3.3 3.1 3.2 3.3 3.2 3.5 3.9 3.9 3.9 3.3 3.1 2.9 2.7 2.7 2.6 2.5 2.5 2.4 2.4 2.3 2.3 2.3 2.5 2.6 2.7 2.6 2.5 2.5 2.6 2.7 2.8 3.2 3.6 4.0
3.2 3.1 3.1 3.1 3.1 3.8 3.0 3.1 3.1 3.3 3.5 3.4 3.7 4.0 4.5 4.4 4.4 3.7 3.3 3.0 3.2 3.1 2.8 2.7 2.8 2.8 2.7 2.8 2.8 2.7 2.9 3.1 2.8 3.2 3.4 3.2 3.1 2.8 2.7 3.0 3.0 3.1
3.1 3.0 3.0 3.5 3.2 3.5 3.6 3.5 3.5 3.8 3.5 3.8 4.3 4.7 4.3 4.2 4.3 4.0 3.9 4.0 3.3 3.2 3.5 2.9 3.4 3.2 3.1 3.5 3.6 3.6 3.9 4.8 4.6 5.0 5.1 5.2 4.7 4.2 3.8 3.6 3.4 3.4
3.2 3.5 3.7 4.1 4.1 4.3 3.9 3.6 3.6 3.8 4.2 4.0 4.6 4.6 4.6 4.0 4.2 4.3 4.7 6.0 4.4 4.1 3.8 4.2 3.9 3.7 3.5 4.0 4.6 7.2 9.2 10.1 10.6 10.4 9.8 9.5 9.2 8.3 7.0 5.8 5.0 4.4
3.5 3.9 3.8 3.9 3.8 3.6 3.6 3.8 3.9 4.1 4.2 4.6 4.6 4.7 5.1 5.6 5.2 5.8 5.5 5.3 5.1 5.2 5.5 5.2 4.9 4.3 4.0 5.3 9.3 12.0 14.1 15.8 14.9 13.0 10.9 10.2 9.5 8.9 8.1 6.2 5.0 4.4
3.7 3.7 3.8 3.8 3.8 3.9 4.0 4.3 4.2 4.6 4.8 4.9 5.7 5.3 5.7 5.7 6.7 7.0 5.7 5.4 5.6 5.8 6.1 5.8 5.7 4.6 5.2 9.3 11.5 15.6 20.5 20.2 18.2 16.3 14.0 12.3 10.9 10.2 9.0 8.0 7.1 6.2
3.6 4.0 4.1 4.1 4.2 4.9 4.3 4.7 5.0 5.2 5.3 5.6 5.8 5.8 6.3 7.2 7.7 6.7 6.6 6.6 6.8 7.7 7.1 6.5 6.5 5.3 6.8 10.6 13.0 18.2 22.9 25.5 21.4 17.8 15.6 13.1 10.9 9.7 8.8 8.0 7.5 7.9
3.7 4.1 4.4 4.4 4.5 4.5 4.6 5.0 5.4 5.8 5.7 6.2 6.3 6.5 7.4 7.9 7.6 8.0 7.8 8.5 8.8 9.3 9.0 8.6 8.1 6.9 7.7 12.5 17.4 20.6 25.5 29.0 23.5 20.0 17.0 14.4 12.0 10.1 8.7 7.8 7.3 7.5
4.1 4.7 5.2 4.7 4.5 4.4 4.9 5.2 5.6 5.8 5.9 6.2 6.9 7.6 8.6 9.4 9.3 9.5 9.6 10.0 10.2 11.3 11.2 11.0 9.4 7.8 10.7 16.1 19.3 22.4 26.3 31.5 26.3 22.0 18.0 14.3 11.4 9.9 9.2 8.5 7.6 7.2
4.3 4.8 4.8 4.9 4.8 5.1 5.9 6.1 5.9 6.0 7.0 6.6 7.5 8.0 8.4 8.8 8.3 8.5 9.0 9.1 8.8 9.6 10.7 10.6 8.3 7.7 12.0 16.5 18.6 23.2 29.0 28.0 27.2 22.1 17.8 14.2 11.4 9.6 8.6 7.6 7.0 7.3
4.6 5.0 5.2 5.1 5.3 5.9 6.1 6.1 6.3 6.2 6.1 6.3 7.7 7.2 7.1 6.9 7.1 6.8 7.1 8.0 8.4 8.5 9.0 8.4 7.7 7.6 9.7 15.0 16.9 21.7 31.2 33.2 29.1 22.4 17.6 14.3 11.1 9.4 8.5 7.7 7.0 7.0
4.3 4.9 5.7 5.7 5.9 6.3 5.9 5.5 5.2 5.5 6.0 5.9 7.4 7.4 7.3 6.9 6.6 7.1 7.1 7.4 8.2 8.4 8.2 8.7 7.8 6.9 8.3 12.5 15.8 20.1 28.3 30.7 28.8 25.5 19.7 15.4 13.0 10.8 9.7 9.1 7.3 7.3
4.7 4.8 5.5 6.0 6.4 5.9 5.6 5.8 5.7 5.8 5.8 6.2 6.8 6.9 6.9 6.3 6.6 7.3 7.1 7.1 7.2 7.3 7.2 8.3 8.2 7.0 6.9 10.8 14.2 20.9 25.4 27.8 27.0 24.1 21.3 16.5 14.2 12.8 10.2 8.6 7.3 6.3
4.6 5.1 5.4 6.1 6.5 5.9 5.4 5.7 5.7 6.1 5.8 6.5 6.4 6.1 6.2 5.8 6.1 6.2 6.4 6.4 6.5 7.6 8.2 8.1 8.2 7.5 7.4 8.1 15.8 22.7 23.5 24.1 25.2 24.5 23.5 19.7 16.7 14.4 14.0 12.0 9.3 8.1